Вернуться в каталог

STARLINK-2131

АктивенСвязьVLEO
NORAD 47728·PAYLOAD·🇺🇸 United States

Запущен Mar 4, 2021 с Cape Canaveral Space Force Station

Loading…

Ближайшие Пролёты (ближайшие 24 часа)

TLE

СвежийSource: CelesTrak SupGP

Эпоха: Sep 15, 2026, 01:59 UTC

1 47728C 21017G   26258.08312500  .00237380  00000+0  91161-3 0  2582
2 47728  53.0634   7.1273 0006870 325.0618  92.4130 15.86500234    11

Отслеживайте STARLINK-2131 в реальном времени с AllMySat

Download on the App Store